Terug naar catalogus

STARLINK-37245

ActiefCommunicatieVLEO
NORAD 68547·PAYLOAD·🇺🇸 United States

Gelanceerd Apr 2, 2026 vanaf Cape Canaveral Space Force Station

Loading…

Volgende Passages (komende 24 uur)

TLE

VersSource: CelesTrak SupGP

Epoch: Sep 14, 2026, 21:40 UTC

1 68547C 26070F   26257.90326389  .00009278  00000+0  27411-3 0  2577
2 68547  53.1579 200.0055 0001639  94.9579   4.6649 15.34387305    15

Volg STARLINK-37245 in realtime met AllMySat

Download on the App Store